TimeEDT,TemperatureF,Dew PointF,Humidity,Sea Level PressureIn,VisibilityMPH,Wind Direction,Wind SpeedMPH,Gust SpeedMPH,PrecipitationIn,Events,Conditions,WindDirDegrees,DateUTC
12:53 AM,80.1,66.9,64,30.06,10.0,NE,15.0,20.7,N/A,,Partly Cloudy,40,2012-10-12 04:53:00
1:53 AM,80.1,66.9,64,30.06,10.0,NE,10.4,17.3,N/A,,Partly Cloudy,50,2012-10-12 05:53:00
2:53 AM,80.1,68.0,67,30.04,10.0,NE,10.4,18.4,N/A,,Partly Cloudy,50,2012-10-12 06:53:00
3:53 AM,79.0,69.1,72,30.04,10.0,NE,12.7,19.6,N/A,,Partly Cloudy,40,2012-10-12 07:53:00
4:53 AM,79.0,68.0,69,30.04,10.0,NE,11.5,19.6,N/A,,Clear,40,2012-10-12 08:53:00
5:53 AM,79.0,68.0,69,30.05,10.0,NE,8.1,-,N/A,,Partly Cloudy,50,2012-10-12 09:53:00
6:05 AM,78.8,68.0,69,30.05,10.0,NE,11.5,-,N/A,,Partly Cloudy,50,2012-10-12 10:05:00
6:53 AM,79.0,66.9,66,30.06,10.0,NE,10.4,18.4,N/A,,Partly Cloudy,40,2012-10-12 10:53:00
7:53 AM,79.0,66.9,66,30.08,10.0,NNE,12.7,-,N/A,,Scattered Clouds,30,2012-10-12 11:53:00
8:53 AM,81.0,68.0,65,30.09,10.0,NE,11.5,-,N/A,,Scattered Clouds,40,2012-10-12 12:53:00
9:53 AM,82.9,68.0,60,30.11,10.0,NNE,13.8,21.9,N/A,,Scattered Clouds,30,2012-10-12 13:53:00
10:53 AM,84.0,68.0,58,30.11,10.0,NE,15.0,18.4,N/A,,Scattered Clouds,40,2012-10-12 14:53:00
11:53 AM,84.0,68.0,58,30.11,10.0,NE,15.0,20.7,N/A,,Scattered Clouds,40,2012-10-12 15:53:00
12:53 PM,84.9,69.1,59,30.09,10.0,NE,10.4,19.6,N/A,,Scattered Clouds,40,2012-10-12 16:53:00
1:53 PM,84.9,66.9,55,30.07,10.0,NE,15.0,20.7,N/A,,Scattered Clouds,40,2012-10-12 17:53:00
2:53 PM,87.1,66.0,49,30.05,10.0,NNE,12.7,-,N/A,,Partly Cloudy,30,2012-10-12 18:53:00
3:53 PM,86.0,68.0,55,30.04,10.0,NNE,12.7,-,N/A,,Scattered Clouds,20,2012-10-12 19:53:00
4:53 PM,86.0,66.9,53,30.03,10.0,NNE,11.5,-,N/A,,Partly Cloudy,20,2012-10-12 20:53:00
5:53 PM,84.9,64.0,49,30.04,10.0,NNE,11.5,-,N/A,,Partly Cloudy,30,2012-10-12 21:53:00
6:53 PM,82.9,66.0,56,30.05,10.0,NE,11.5,16.1,N/A,,Partly Cloudy,40,2012-10-12 22:53:00
7:53 PM,82.9,63.0,51,30.06,10.0,NE,9.2,16.1,N/A,,Clear,50,2012-10-12 23:53:00
8:53 PM,82.0,64.9,56,30.07,10.0,NE,9.2,18.4,N/A,,Clear,50,2012-10-13 00:53:00
9:53 PM,81.0,64.0,56,30.08,10.0,NE,11.5,21.9,N/A,,Clear,50,2012-10-13 01:53:00
10:53 PM,81.0,63.0,54,30.09,10.0,NE,13.8,21.9,N/A,,Clear,40,2012-10-13 02:53:00
11:53 PM,80.1,64.9,60,30.09,10.0,NNE,16.1,20.7,N/A,,Clear,30,2012-10-13 03:53:00